Weather Roundup
Issued by NWS Springfield, MO

Home | Current Version | Previous Version | Text Only | Print | Product List | Glossary On
Versions: 1 2 3 4 5 6 7 8 9 10 11 12 13 14 15 16 17 18 19 20 21 22 23 24 25 26 27 28 29 30 31 32 33 34 35 36 37 38 39 40 41 42 43 44 45 46 47 48 49 50
000
NZUS99 KSGF 251307
HRRSGF

HOURLY WEATHER
NATIONAL WEATHER SERVICE SPRINGFIELD MO
800 AM CDT SAT APR 25 2015

......SGF CWA......

CITY           SKY/WX    TMP DP  RH WIND       PRES   REMARKS
SPRINGFIELD    MOSUNNY   61  56  83 S17G24    29.50S
JOPLIN         PTSUNNY   62  56  80 SW17G30   29.50R
WEST PLAINS    CLOUDY    60  58  92 SW12G17   29.58R
ROLLA          CLOUDY    58  56  93 S14       29.49F
OSAGE BEACH    CLOUDY    61  55  82 S7        29.49S
BRANSON        SUNNY     63  55  77 SW12G17   29.57R

......SURROUNDING SGF CWA......

CITY           SKY/WX    TMP DP  RH WIND       PRES   REMARKS
CHANUTE        SUNNY     61  53  75 W18G24    29.48R
PARSONS        SUNNY     62  54  74 SW12      29.52R
COFFEYVILLE    SUNNY     61  53  75 W13       29.52R
EMPORIA        MOSUNNY   56  53  90 W8        29.47R
GROVE OK       SUNNY     64  55  72 SW14      29.56R
ROGERS AR      SUNNY     61  56  83 SW18G26   29.58S
SILOAM SPRINGS SUNNY     61  52  72 SW15G23   29.60F
HARRISON AR    SUNNY     64  54  69 SW16G29   29.57S
NEAR YELLVILLE SUNNY     63  57  82 SW7       29.56R

......KANSAS AND MISSOURI......

CITY           SKY/WX    TMP DP  RH WIND       PRES   REMARKS
KANSAS CTY INT LGT RAIN  56  56 100 CALM      29.43S FOG
DOWNTOWN KC    LGT RAIN  57  55  93 W5        29.43R
COLUMBIA       CLOUDY    58  56  93 SE7       29.49F
SEDALIA        CLOUDY    63  57  81 S8        29.46S
ST JOSEPH      CLOUDY    57  55  93 E10       29.43S FOG
ST LOUIS       DRIZZLE   57  53  86 S12       29.54F FOG
SPIRIT OF STL  CLOUDY    57  54  89 SE6       29.52F FOG
KIRKSVILLE     CLOUDY    52  52 100 E10       29.51R
WICHITA        PTSUNNY   59  52  77 W13       29.54R
TOPEKA         CLOUDY    57  54  89 SW8       29.41F
OLATHE         RAIN      56  55  97 NW7       29.42R FOG

......TENNESSEE......

CITY           SKY/WX    TMP DP  RH WIND       PRES   REMARKS
MEMPHIS        CLOUDY    64  60  87 S14       29.68S
NASHVILLE      CLOUDY    61  58  90 CALM      29.71S

......ARKANSAS.......

CITY           SKY/WX    TMP DP  RH WIND       PRES   REMARKS
FAYETTEVILLE   SUNNY     62  56  80 SW17G23   29.60R
FT SMITH       LGT RAIN  57  56  96 N3        29.62R VSB<1/4
LITTLE ROCK    CLOUDY    65  60  84 SW12G21   29.67S

......OKLAHOMA.......

CITY           SKY/WX    TMP DP  RH WIND       PRES   REMARKS
TULSA          SUNNY     63  53  70 SW6       29.56R
PONCA CITY     SUNNY     58  51  78 W7        29.58R
MCALESTER      MOSUNNY   63  56  78 SW13      29.65R
OKLAHOMA CITY  SUNNY     55  48  77 S3        29.64R

......IOWA............

CITY           SKY/WX    TMP DP  RH WIND       PRES   REMARKS
DES MOINES     LGT RAIN  45  42  89 NE17      29.60R FOG
QUAD CITIES    LGT RAIN  44  41  89 E20G26    29.67F FOG

......ILLINOIS........

CITY           SKY/WX    TMP DP  RH WIND       PRES   REMARKS
QUINCY         RAIN      50  48  93 E8        29.55F FOG
CHICAGO        LGT RAIN  44  38  79 E12G18    29.80R



USA.gov is the U.S. government's official web portal to all federal, state and local government web resources and services.